User: anonymous   Login
Location: Breitenfeld
(46.8500°N, 15.6333°E)
Time: 12:16:43
(UTC+00:00)
Language:

SPOT 5 - Orbit

View from above orbital plane
View from above orbital plane
View from above satellite
View from above satellite

Ground track
Ground track

The orbit data is extracted from the following two-line orbital elements,

1 27421U 02021A   20192.08176791  .00000014  00000-0  14027-4 0  9997
2 27421  98.2706 262.5429 0135836 135.6537 225.5631 14.52042537948037
Epoch (UTC): 10 July 2020 01:57:44
Eccentricity: 0.0135836
inclination: 98.2706°
perigee height: 622 km
apogee height: 815 km
right ascension of ascending node: 262.5429°
argument of perigee: 135.6537°
revolutions per day: 14.52042537
mean anomaly at epoch: 225.5631°
orbit number at epoch: 94803

The dashed part of the orbit path shows where the satellite is in the earth's shadow,  

DLR